Location: Most
(50.5330°N, 13.6500°E)
Time: 05:55:24
(UTC+02:00)

ISS - Pass Details

Date: 25 May 2021
Orbit: 417 x 422 km, 51.6° (Epoch: 13 June)

Event Time Altitude Azimuth Distance (km) Brightness Sun altitude
Rises 00:36:08 0° 283° (WNW) 2,369 0.3 -18.3°
Reaches altitude 10° 00:38:37 10° 265° (W) 1,503 -0.9 -18.3°
Enters shadow 00:39:25 14° 254° (WSW) 1,287 -1.4 -18.3°
